Location: Newark
(17.1458°N, 89.0741°W)
Time: 09:06:53
(UTC+00:00)

OTV 5 (USA 277) - Pass Details

Date: 19 July 2019
Orbit: 305 x 329 km, 54.5° (Epoch: 20 August)

Event Time Altitude Azimuth Distance (km) Brightness Sun altitude
Rises 01:24:04 0° 310° (NW) 2,057 ? -11.9°
Reaches altitude 10° 01:26:12 10° 297° (WNW) 1,229 ? -12.3°
Maximum altitude 01:28:32 26° 238° (WSW) 689 ? -12.8°
Enters shadow 01:30:49 11° 179° (S) 1,202 ? -13.3°
